Weather History for PAKP - February, 2013

Change the Weather History Date:

Tuesday, February 12, 2013

  Actual Average Record
Temperature  
Mean Temperature -6 °F -  
Max Temperature 0 °F -1 °F 32 °F (2006)
Min Temperature -11 °F -11 °F -32 °F (2011)
Degree Days  
Heating Degree Days 70    
Moisture  
Dew Point -14 °F    
Average Humidity 67    
Maximum Humidity 85    
Minimum Humidity 55    
Precipitation  
Precipitation 0.00 in - - ()
Sea Level Pressure  
Sea Level Pressure 29.58 in    
Wind  
Wind Speed 14 mph (South)    
Max Wind Speed 21 mph    
Max Gust Speed 22 mph    
Visibility 5 miles    
Events      
Averages and records for this station are not official NWS values.
T = Trace of Precipitation, MM = Missing Value Source: NWS Daily Summary

Daily Weather History Graph

Daily Weather History Graph

Search for Another Location

Airport or City:

Trip Planner

Search our weather history database for the weather conditions in past years. The results will help you decide how hot, cold, wet, or windy it might be!

Date:

Astronomy

Feb. 12, 2013 Rise Set
Actual Time 9:36 AM AKST 5:07 PM AKST
Civil Twilight 8:32 AM AKST 6:10 PM AKST
Nautical Twilight 7:26 AM AKST 7:17 PM AKST
Astronomical Twilight 6:22 AM AKST 8:22 PM AKST
Moon 8:52 AM AKST (2/12) 10:23 PM AKST (2/12)
Length of Visible Light 9h 37m
Length of Day
7h 31m
Waxing Crescent, 8% of the Moon is Illuminated
Feb 12
Waxing Crescent
Feb 17
First Quarter
Feb 25
Full
Mar 4
Last Quarter
Mar 11
New

Hourly Weather History & Observations

Time (AKST) Temp. Windchill Dew Point Humidity Pressure Visibility Wind Dir Wind Speed Gust Speed Precip Events Conditions
12:16 AM -0.4 °F -20.5 °F -9.4 °F 66% 29.53 in 2.5 mi South 16.1 mph - N/A   Overcast
12:36 AM -0.4 °F -20.5 °F -7.6 °F 72% 29.53 in 2.0 mi South 16.1 mph - N/A   Overcast
12:56 AM -0.4 °F -19.2 °F -4.0 °F 85% 29.53 in 1.5 mi SSW 13.8 mph 21.9 mph N/A   Overcast
1:16 AM -0.4 °F -19.9 °F -9.4 °F 66% 29.53 in 1.8 mi South 15.0 mph - N/A   Overcast
1:36 AM -0.4 °F -19.9 °F -9.4 °F 66% 29.54 in 2.0 mi SSW 15.0 mph - N/A   Overcast
1:56 AM -2.2 °F -22.2 °F -11.2 °F 66% 29.53 in 2.5 mi SSW 15.0 mph - N/A   Partly Cloudy
2:16 AM -2.2 °F -23.5 °F -9.4 °F 71% 29.54 in 1.8 mi South 17.3 mph - N/A   Mostly Cloudy
2:36 AM -2.2 °F -23.5 °F -11.2 °F 66% 29.53 in 1.5 mi SSW 17.3 mph - N/A   Overcast
2:56 AM -2.2 °F -24.1 °F -9.4 °F 71% 29.54 in 1.5 mi South 18.4 mph - N/A   Mostly Cloudy
3:16 AM -2.2 °F -22.9 °F -11.2 °F 66% 29.54 in 2.0 mi South 16.1 mph - N/A   Scattered Clouds
3:36 AM -2.2 °F -23.5 °F -9.4 °F 71% 29.54 in 2.0 mi South 17.3 mph - N/A   Overcast
3:56 AM -2.2 °F -22.9 °F -9.4 °F 71% 29.54 in 1.0 mi SSW 16.1 mph - N/A   Overcast
4:16 AM -2.2 °F -24.7 °F -11.2 °F 66% 29.54 in 1.0 mi SSW 19.6 mph - N/A   Overcast
4:36 AM -2.2 °F -24.1 °F -9.4 °F 71% 29.54 in 1.0 mi SSW 18.4 mph - N/A   Overcast
4:56 AM -2.2 °F -25.2 °F -9.4 °F 71% 29.54 in 1.0 mi SSW 20.7 mph - N/A   Overcast
5:16 AM -2.2 °F -24.7 °F -11.2 °F 66% 29.55 in 0.8 mi SSW 19.6 mph - N/A   Overcast
5:36 AM -4.0 °F -25.2 °F -11.2 °F 71% 29.55 in 0.8 mi SSW 16.1 mph - N/A   Overcast
5:56 AM -4.0 °F -25.2 °F -11.2 °F 71% 29.55 in 1.0 mi SSW 16.1 mph - N/A   Overcast
6:16 AM -4.0 °F -25.8 °F -11.2 °F 71% 29.56 in 0.8 mi South 17.3 mph - N/A   Overcast
6:36 AM -5.8 °F -26.0 °F -13.0 °F 71% 29.56 in 1.2 mi South 13.8 mph - N/A   Overcast
6:56 AM -5.8 °F -27.5 °F -14.8 °F 65% 29.56 in 0.8 mi South 16.1 mph - N/A   Overcast
7:16 AM -5.8 °F -28.2 °F -14.8 °F 65% 29.55 in 0.8 mi South 17.3 mph - N/A   Overcast
7:36 AM -7.6 °F -29.1 °F -16.6 °F 65% 29.56 in 0.8 mi South 15.0 mph 20.7 mph N/A   Overcast
7:56 AM -7.6 °F -28.3 °F -14.8 °F 71% 29.55 in 1.0 mi South 13.8 mph - N/A   Overcast
8:16 AM -7.6 °F -30.5 °F -16.6 °F 65% 29.55 in 0.8 mi South 17.3 mph - N/A   Overcast
8:36 AM -7.6 °F -28.3 °F -16.6 °F 65% 29.56 in 1.2 mi South 13.8 mph - N/A   Overcast
8:56 AM -9.4 °F -28.9 °F -16.6 °F 71% 29.56 in 1.5 mi South 11.5 mph - N/A   Overcast
9:16 AM -9.4 °F -31.4 °F -16.6 °F 71% 29.55 in 0.5 mi South 15.0 mph - N/A   Overcast
9:36 AM -9.4 °F -30.6 °F -18.4 °F 65% 29.56 in 0.8 mi South 13.8 mph - N/A   Overcast
9:56 AM -9.4 °F -31.4 °F -20.2 °F 59% 29.56 in 1.2 mi South 15.0 mph - N/A   Overcast
10:16 AM -9.4 °F -28.9 °F -18.4 °F 65% 29.56 in 1.0 mi South 11.5 mph - N/A   Overcast
10:36 AM -11.2 °F -31.1 °F -20.2 °F 64% 29.57 in 1.0 mi South 11.5 mph - N/A   Overcast
10:56 AM -11.2 °F -31.1 °F -20.2 °F 64% 29.57 in 1.5 mi South 11.5 mph - N/A   Overcast
11:16 AM -9.4 °F -29.8 °F -18.4 °F 65% 29.57 in 2.5 mi South 12.7 mph - N/A   Partly Cloudy
11:36 AM -11.2 °F -32.1 °F -18.4 °F 70% 29.57 in 3.0 mi South 12.7 mph - N/A   Clear
11:56 AM -11.2 °F -30.1 °F -20.2 °F 64% 29.57 in 3.0 mi South 10.4 mph - N/A   Clear
12:16 PM -9.4 °F -26.8 °F -18.4 °F 65% 29.58 in 7.0 mi South 9.2 mph - N/A   Clear
12:36 PM -9.4 °F -30.6 °F -18.4 °F 65% 29.58 in 5.0 mi South 13.8 mph - N/A   Clear
12:56 PM -9.4 °F -29.8 °F -16.6 °F 71% 29.58 in 9.0 mi South 12.7 mph - N/A   Clear
1:16 PM -9.4 °F -28.9 °F -16.6 °F 71% 29.58 in 5.0 mi South 11.5 mph - N/A   Partly Cloudy
1:36 PM -9.4 °F -29.8 °F -20.2 °F 59% 29.58 in 9.0 mi South 12.7 mph - N/A   Clear
1:56 PM -7.6 °F -24.6 °F -14.8 °F 71% 29.57 in 10.0 mi South 9.2 mph - N/A   Clear
2:16 PM -7.6 °F -29.8 °F -14.8 °F 71% 29.57 in 4.0 mi SSW 16.1 mph 19.6 mph N/A   Partly Cloudy
2:36 PM -5.8 °F -26.0 °F -14.8 °F 65% 29.58 in 10.0 mi South 13.8 mph - N/A   Partly Cloudy
2:56 PM -5.8 °F -27.5 °F -13.0 °F 71% 29.58 in 4.0 mi South 16.1 mph - N/A   Scattered Clouds
3:16 PM -4.0 °F -22.1 °F -13.0 °F 65% 29.58 in 10.0 mi South 11.5 mph - N/A   Scattered Clouds
3:36 PM -5.8 °F -25.2 °F -14.8 °F 65% 29.58 in 7.0 mi South 12.7 mph - N/A   Clear
3:56 PM -5.8 °F -26.8 °F -13.0 °F 71% 29.58 in 10.0 mi South 15.0 mph - N/A   Clear
4:16 PM -5.8 °F -23.4 °F -16.6 °F 60% 29.59 in 10.0 mi South 10.4 mph - N/A   Clear
4:36 PM -5.8 °F -21.2 °F -16.6 °F 60% 29.59 in 10.0 mi South 8.1 mph - N/A   Clear
4:56 PM -7.6 °F -24.6 °F -16.6 °F 65% 29.59 in 10.0 mi South 9.2 mph - N/A   Clear
5:16 PM -9.4 °F -24.3 °F -20.2 °F 59% 29.60 in 10.0 mi South 6.9 mph - N/A   Clear
5:36 PM -5.8 °F -24.4 °F -11.2 °F 77% 29.59 in 10.0 mi South 11.5 mph - N/A   Clear
5:56 PM -5.8 °F -25.2 °F -14.8 °F 65% 29.60 in 10.0 mi SSW 12.7 mph - N/A   Clear
6:16 PM -5.8 °F -23.4 °F -16.6 °F 60% 29.60 in 10.0 mi South 10.4 mph - N/A   Clear
6:36 PM -5.8 °F -23.4 °F -14.8 °F 65% 29.60 in 10.0 mi South 10.4 mph - N/A   Clear
6:56 PM -5.8 °F -22.4 °F -14.8 °F 65% 29.61 in 10.0 mi South 9.2 mph - N/A   Clear
7:16 PM -5.8 °F -22.4 °F -11.2 °F 77% 29.61 in 10.0 mi South 9.2 mph - N/A   Clear
7:36 PM -5.8 °F -23.4 °F -16.6 °F 60% 29.61 in 10.0 mi South 10.4 mph - N/A   Clear
7:56 PM -5.8 °F -19.9 °F -14.8 °F 65% 29.62 in 10.0 mi South 6.9 mph - N/A   Clear
8:16 PM -4.0 °F -20.2 °F -11.2 °F 71% 29.62 in 10.0 mi South 9.2 mph - N/A   Clear
8:36 PM -5.8 °F -22.4 °F -16.6 °F 60% 29.63 in 10.0 mi South 9.2 mph - N/A   Clear
8:56 PM -5.8 °F -21.2 °F -14.8 °F 65% 29.63 in 10.0 mi South 8.1 mph - N/A   Clear
9:16 PM -5.8 °F -21.2 °F -14.8 °F 65% 29.63 in 10.0 mi SSW 8.1 mph - N/A   Clear
9:36 PM -5.8 °F -21.2 °F -13.0 °F 71% 29.63 in 10.0 mi South 8.1 mph - N/A   Clear
9:56 PM -5.8 °F -18.4 °F -16.6 °F 60% 29.63 in 10.0 mi SSW 5.8 mph - N/A   Clear
10:16 PM -5.8 °F -18.4 °F -16.6 °F 60% 29.63 in 10.0 mi SSW 5.8 mph - N/A   Clear
10:36 PM -5.8 °F -24.4 °F -14.8 °F 65% 29.63 in 10.0 mi South 11.5 mph - N/A   Clear
10:56 PM -7.6 °F -23.4 °F -16.6 °F 65% 29.63 in 10.0 mi South 8.1 mph - N/A   Scattered Clouds
11:16 PM -5.8 °F -22.4 °F -18.4 °F 55% 29.63 in 10.0 mi SSW 9.2 mph - N/A   Overcast
11:36 PM -5.8 °F -24.4 °F -14.8 °F 65% 29.63 in 10.0 mi South 11.5 mph - N/A   Scattered Clouds
11:56 PM -5.8 °F -25.2 °F -16.6 °F 60% 29.63 in 10.0 mi South 12.7 mph - N/A   Clear